NOZ623 ENBR-ENGM

Flight info

Callsign NOZ623
Flight time 0h 36m
Altitude 29000
Route GOKAB DCT ULVAN DCT ADOPI
Aircraft B738/M-SDE2E3FGHIRWXY/LB1

Departure

Time 2026-05-05 17:18
Airport Bergen Airport, Flesland (ENBR)

Arrival

Time 2026-05-05 17:54
Airport Oslo-Gardermoen International Airport (ENGM)
Time Latitude Longitude Altitude Speed Heading
2026-05-05 16:59 60.28780 5.22884 175 ft 0 kts 80°
2026-05-05 17:09 60.28778 5.22861 175 ft 2 kts 81°
2026-05-05 17:09 60.28776 5.22828 174 ft 2 kts 83°
2026-05-05 17:10 60.28774 5.22795 174 ft 2 kts 86°
2026-05-05 17:10 60.28774 5.22762 174 ft 2 kts 95°
2026-05-05 17:10 60.28778 5.22730 174 ft 2 kts 140°
2026-05-05 17:10 60.28786 5.22721 174 ft 0 kts 169°
2026-05-05 17:14 60.28776 5.22725 174 ft 4 kts 171°
2026-05-05 17:15 60.28736 5.22714 174 ft 8 kts 212°
2026-05-05 17:15 60.28719 5.22612 173 ft 8 kts 260°
2026-05-05 17:15 60.28705 5.22487 172 ft 11 kts 251°
2026-05-05 17:15 60.28638 5.22373 166 ft 16 kts 175°
2026-05-05 17:16 60.28525 5.22410 163 ft 18 kts 171°
2026-05-05 17:16 60.28386 5.22458 160 ft 22 kts 170°
2026-05-05 17:16 60.28230 5.22508 155 ft 21 kts 171°
2026-05-05 17:16 60.28137 5.22539 152 ft 12 kts 171°
2026-05-05 17:17 60.28064 5.22496 151 ft 11 kts 237°
2026-05-05 17:17 60.28050 5.22359 153 ft 10 kts 261°
2026-05-05 17:17 60.28058 5.22250 152 ft 7 kts 323°
2026-05-05 17:17 60.28104 5.22229 152 ft 7 kts 351°
2026-05-05 17:18 60.28261 5.22178 153 ft 57 kts 351°
2026-05-05 17:18 60.28922 5.21956 163 ft 133 kts 351°
2026-05-05 17:18 60.30020 5.21615 455 ft 170 kts 349°
2026-05-05 17:18 60.31110 5.21314 1950 ft 145 kts 349°
2026-05-05 17:19 60.32109 5.21008 2910 ft 148 kts 349°
2026-05-05 17:19 60.33210 5.20639 3392 ft 175 kts 347°
2026-05-05 17:19 60.34500 5.20200 3832 ft 197 kts 348°
2026-05-05 17:19 60.35938 5.19693 4141 ft 220 kts 348°
2026-05-05 17:20 60.37452 5.19192 4715 ft 233 kts 348°
2026-05-05 17:20 60.39125 5.18610 5241 ft 251 kts 347°
2026-05-05 17:20 60.40847 5.18000 5789 ft 253 kts 347°
2026-05-05 17:20 60.42574 5.17398 5844 ft 250 kts 348°
2026-05-05 17:21 60.44310 5.16939 6025 ft 256 kts 351°
2026-05-05 17:21 60.46120 5.16584 6208 ft 267 kts 354°
2026-05-05 17:21 60.47972 5.17076 7185 ft 271 kts 18°
2026-05-05 17:22 60.50815 5.22290 8921 ft 299 kts 60°
2026-05-05 17:22 60.51341 5.26427 9744 ft 310 kts 88°
2026-05-05 17:22 60.51139 5.30804 10611 ft 313 kts 98°
2026-05-05 17:22 60.50778 5.35234 11235 ft 326 kts 99°
2026-05-05 17:23 60.50398 5.39930 11520 ft 350 kts 99°
2026-05-05 17:23 60.50006 5.44916 12076 ft 362 kts 98°
2026-05-05 17:23 60.49655 5.50031 12793 ft 370 kts 97°
2026-05-05 17:23 60.49318 5.55251 13550 ft 377 kts 97°
2026-05-05 17:24 60.48887 5.60545 14219 ft 384 kts 99°
2026-05-05 17:24 60.48509 5.65941 14908 ft 390 kts 97°
2026-05-05 17:24 60.48173 5.71444 15503 ft 396 kts 97°
2026-05-05 17:24 60.47839 5.77031 16168 ft 402 kts 97°
2026-05-05 17:25 60.47491 5.82696 16884 ft 408 kts 97°
2026-05-05 17:25 60.47252 5.86483 17316 ft 412 kts 97°
2026-05-05 17:25 60.46744 5.94278 18144 ft 421 kts 98°
2026-05-05 17:25 60.46347 6.00195 18718 ft 427 kts 98°
2026-05-05 17:26 60.45939 6.06200 19309 ft 432 kts 98°
2026-05-05 17:26 60.45525 6.12193 19841 ft 439 kts 98°
2026-05-05 17:26 60.45095 6.18374 20350 ft 445 kts 98°
2026-05-05 17:26 60.44662 6.24606 20896 ft 450 kts 98°
2026-05-05 17:27 60.44223 6.30921 21403 ft 457 kts 99°
2026-05-05 17:27 60.43772 6.37353 21870 ft 464 kts 99°
2026-05-05 17:27 60.43318 6.43854 22434 ft 467 kts 97°
2026-05-05 17:27 60.43025 6.50455 22885 ft 475 kts 93°
2026-05-05 17:28 60.42845 6.57166 23351 ft 481 kts 92°
2026-05-05 17:28 60.42700 6.63967 23792 ft 486 kts 92°
2026-05-05 17:28 60.42551 6.70824 24256 ft 488 kts 92°
2026-05-05 17:28 60.42384 6.77695 24776 ft 491 kts 92°
2026-05-05 17:29 60.42197 6.84598 25285 ft 493 kts 93°
2026-05-05 17:29 60.41997 6.91532 25769 ft 494 kts 93°
2026-05-05 17:29 60.41790 6.98490 26272 ft 495 kts 93°
2026-05-05 17:29 60.41580 7.05429 26857 ft 494 kts 93°
2026-05-05 17:30 60.41367 7.12374 27441 ft 491 kts 93°
2026-05-05 17:30 60.41152 7.19249 28105 ft 488 kts 93°
2026-05-05 17:30 60.40931 7.26095 28537 ft 489 kts 94°
2026-05-05 17:30 60.40707 7.32970 28421 ft 488 kts 94°
2026-05-05 17:31 60.40482 7.39783 28354 ft 482 kts 94°
2026-05-05 17:31 60.40031 7.53161 28195 ft 470 kts 94°
2026-05-05 17:31 60.39804 7.59747 27749 ft 469 kts 94°
2026-05-05 17:32 60.39574 7.66326 27220 ft 469 kts 94°
2026-05-05 17:32 60.39340 7.72914 26719 ft 469 kts 94°
2026-05-05 17:32 60.39108 7.79392 26296 ft 467 kts 94°
2026-05-05 17:32 60.38869 7.85925 25913 ft 464 kts 94°
2026-05-05 17:33 60.38629 7.92423 25535 ft 461 kts 94°
2026-05-05 17:33 60.38388 7.98868 25141 ft 459 kts 95°
2026-05-05 17:33 60.38145 8.05283 24755 ft 457 kts 95°
2026-05-05 17:33 60.37899 8.11676 24384 ft 455 kts 95°
2026-05-05 17:34 60.37652 8.18031 24005 ft 452 kts 95°
2026-05-05 17:34 60.37404 8.24354 23638 ft 451 kts 95°
2026-05-05 17:34 60.37152 8.30659 23254 ft 448 kts 95°
2026-05-05 17:34 60.36900 8.36911 22905 ft 444 kts 95°
2026-05-05 17:35 60.36648 8.43088 22575 ft 439 kts 95°
2026-05-05 17:35 60.36396 8.49204 22230 ft 435 kts 95°
2026-05-05 17:35 60.36144 8.55256 21876 ft 430 kts 95°
2026-05-05 17:35 60.35892 8.61220 21428 ft 422 kts 95°
2026-05-05 17:36 60.35642 8.67104 20854 ft 418 kts 95°
2026-05-05 17:36 60.35391 8.72917 20296 ft 413 kts 95°
2026-05-05 17:36 60.35141 8.78653 19803 ft 407 kts 95°
2026-05-05 17:36 60.34893 8.84294 19337 ft 401 kts 95°
2026-05-05 17:37 60.34645 8.89893 18707 ft 399 kts 95°
2026-05-05 17:37 60.34481 8.93566 18422 ft 395 kts 95°
2026-05-05 17:37 60.34152 9.00859 17867 ft 387 kts 95°
2026-05-05 17:37 60.33906 9.06253 17498 ft 384 kts 95°
2026-05-05 17:38 60.33659 9.11613 17131 ft 382 kts 95°
2026-05-05 17:38 60.33415 9.16862 16790 ft 378 kts 95°
2026-05-05 17:38 60.33170 9.22114 16465 ft 375 kts 95°
2026-05-05 17:38 60.32925 9.27338 16110 ft 372 kts 95°
2026-05-05 17:39 60.32679 9.32507 15777 ft 369 kts 95°
2026-05-05 17:39 60.32434 9.37595 15649 ft 360 kts 96°
2026-05-05 17:39 60.32061 9.42530 15489 ft 351 kts 102°
2026-05-05 17:39 60.31552 9.47295 15239 ft 345 kts 104°
2026-05-05 17:40 60.31013 9.51989 14939 ft 342 kts 104°
2026-05-05 17:40 60.30478 9.56662 14595 ft 340 kts 104°
2026-05-05 17:40 60.29960 9.61292 14286 ft 338 kts 103°
2026-05-05 17:40 60.29451 9.65918 13969 ft 336 kts 103°
2026-05-05 17:41 60.28952 9.70501 13663 ft 334 kts 103°
2026-05-05 17:41 60.28458 9.75063 13267 ft 332 kts 103°
2026-05-05 17:41 60.27969 9.79558 12982 ft 327 kts 103°
2026-05-05 17:41 60.27479 9.84020 12635 ft 325 kts 104°
2026-05-05 17:42 60.26647 9.88200 12297 ft 321 kts 125°
2026-05-05 17:42 60.25383 9.91851 12037 ft 315 kts 126°
2026-05-05 17:42 60.24202 9.95538 11773 ft 312 kts 124°
2026-05-05 17:42 60.23065 9.99235 11495 ft 310 kts 124°
2026-05-05 17:43 60.21935 10.02924 11239 ft 309 kts 124°
2026-05-05 17:43 60.20807 10.06583 10993 ft 307 kts 124°
2026-05-05 17:43 60.19687 10.10193 10740 ft 303 kts 124°
2026-05-05 17:43 60.18585 10.13724 10449 ft 301 kts 124°
2026-05-05 17:44 60.17472 10.17276 10127 ft 299 kts 124°
2026-05-05 17:44 60.16374 10.20767 9997 ft 291 kts 124°
2026-05-05 17:44 60.15305 10.24158 9805 ft 286 kts 124°
2026-05-05 17:44 60.14239 10.27531 9502 ft 285 kts 124°
2026-05-05 17:45 60.13176 10.30885 9193 ft 285 kts 124°
2026-05-05 17:45 60.12115 10.34229 8896 ft 283 kts 124°
2026-05-05 17:45 60.11061 10.37544 8615 ft 280 kts 124°
2026-05-05 17:45 60.10024 10.40805 8314 ft 274 kts 124°
2026-05-05 17:46 60.09009 10.43992 8018 ft 267 kts 125°
2026-05-05 17:46 60.08019 10.47096 7748 ft 262 kts 124°
2026-05-05 17:46 60.07029 10.50189 7494 ft 267 kts 125°
2026-05-05 17:46 60.06359 10.52280 7332 ft 271 kts 124°
2026-05-05 17:47 60.05332 10.55487 7105 ft 276 kts 124°
2026-05-05 17:47 60.04289 10.58740 6801 ft 277 kts 125°
2026-05-05 17:47 60.03247 10.61985 6540 ft 277 kts 125°
2026-05-05 17:47 60.02207 10.65225 6238 ft 277 kts 125°
2026-05-05 17:48 60.01167 10.68458 5922 ft 274 kts 124°
2026-05-05 17:48 60.00153 10.71604 5725 ft 261 kts 124°
2026-05-05 17:48 59.99195 10.74574 5601 ft 247 kts 124°
2026-05-05 17:48 59.98279 10.77408 5527 ft 239 kts 125°
2026-05-05 17:49 59.97602 10.80420 5388 ft 242 kts 97°
2026-05-05 17:49 59.97754 10.83717 5203 ft 238 kts 74°
2026-05-05 17:49 59.98162 10.86899 4987 ft 238 kts 74°
2026-05-05 17:49 59.98574 10.90128 4746 ft 239 kts 74°
2026-05-05 17:50 59.98996 10.93332 4476 ft 238 kts 68°
2026-05-05 17:50 59.99942 10.95905 4211 ft 228 kts 28°
2026-05-05 17:50 60.01351 10.97208 4105 ft 223 kts 18°
2026-05-05 17:50 60.02814 10.98269 3978 ft 222 kts 14°
2026-05-05 17:51 60.04280 10.99157 3719 ft 220 kts 12°
2026-05-05 17:51 60.05736 10.99997 3446 ft 217 kts 12°
2026-05-05 17:51 60.07168 11.00826 3148 ft 211 kts 12°
2026-05-05 17:51 60.08566 11.01633 2856 ft 207 kts 11°
2026-05-05 17:52 60.09937 11.02422 2555 ft 204 kts 12°
2026-05-05 17:52 60.11278 11.03201 2276 ft 197 kts 11°
2026-05-05 17:52 60.12560 11.03942 2006 ft 191 kts 11°
2026-05-05 17:52 60.13810 11.04665 1740 ft 179 kts 11°
2026-05-05 17:53 60.14939 11.05319 1475 ft 164 kts 12°
2026-05-05 17:53 60.15973 11.05933 1287 ft 145 kts 10°
2026-05-05 17:53 60.16975 11.06478 1014 ft 143 kts 12°
2026-05-05 17:53 60.17876 11.07009 831 ft 134 kts 13°
2026-05-05 17:54 60.18755 11.07527 679 ft 128 kts 12°
2026-05-05 17:54 60.19520 11.07961 672 ft 99 kts 15°
2026-05-05 17:54 60.20064 11.08273 675 ft 64 kts 16°
2026-05-05 17:54 60.20421 11.08481 677 ft 49 kts 16°
2026-05-05 17:55 60.20641 11.08612 676 ft 18 kts 24°
2026-05-05 17:55 60.20683 11.08803 678 ft 16 kts 103°
2026-05-05 17:55 60.20654 11.09009 679 ft 13 kts 105°
2026-05-05 17:55 60.20615 11.09140 681 ft 9 kts 163°
2026-05-05 17:56 60.20553 11.09123 678 ft 9 kts 195°
2026-05-05 17:56 60.20495 11.09089 681 ft 9 kts 197°
2026-05-05 17:56 60.20437 11.09054 678 ft 9 kts 197°
2026-05-05 17:56 60.20370 11.09015 681 ft 11 kts 196°
2026-05-05 17:57 60.20284 11.08966 681 ft 14 kts 196°
2026-05-05 17:57 60.20181 11.08905 680 ft 16 kts 195°
2026-05-05 17:57 60.20066 11.08841 676 ft 18 kts 196°
2026-05-05 17:57 60.19941 11.08768 677 ft 19 kts 195°
2026-05-05 17:58 60.19845 11.08713 678 ft 10 kts 196°
2026-05-05 17:58 60.19782 11.08724 677 ft 9 kts 132°
2026-05-05 17:58 60.19759 11.08854 676 ft 10 kts 106°